FW9456 Weather Reports


time (UTC)temp
F
wind
direction
speed
knots
gust
knots
rain 1hr
in
rain 24hr
in
rain mn
in
humidity
%
barometer
mb
20260507040035 55 0 0.0 5.2 0.00 0.00 0.00 86 1020.3
20260507034539 55 0 0.9 7.0 0.00 0.00 0.00 86 1020.2
20260507033035 55 0 0.0 5.2 0.00 0.00 0.00 85 1020.0
20260507031535 56 0 0.0 4.3 0.00 0.00 0.00 85 1020.0
20260507030036 56 0 0.9 7.0 0.00 0.00 0.00 84 1019.9
20260507024537 56 266 1.7 7.8 0.00 0.00 0.00 83 1019.8
20260507023037 57 0 0.9 7.8 0.00 0.00 0.00 82 1019.7
20260507021537 58 241 0.0 3.5 0.00 0.00 0.00 81 1019.7
20260507020042 58 284 0.9 7.0 0.00 0.00 0.00 80 1019.7
20260507014538 59 300 0.0 3.5 0.00 0.00 0.00 79 1019.8
20260507013047 60 0 0.9 7.8 0.00 0.00 0.00 78 1019.8
20260507011537 61 234 1.7 7.0 0.00 0.00 0.00 76 1019.7
20260507010046 62 0 0.9 10.4 0.00 0.00 0.00 76 1019.6
20260507004536 62 309 1.7 7.8 0.00 0.00 0.00 76 1019.5
20260507003036 62 277 0.9 10.4 0.00 0.00 0.00 77 1019.7
20260507001537 63 352 2.6 8.7 0.00 0.00 0.00 74 1019.6
20260507000036 64 347 0.9 11.3 0.00 0.00 0.00 74 1019.5
20260506234537 64 300 2.6 10.4 0.00 0.00 0.00 74 1019.5
20260506233054 63 207 1.7 12.2 0.00 0.00 0.00 77 1019.5
20260506231539 63 236 1.7 11.3 0.00 0.00 0.00 76 1019.4
20260506230036 64 294 3.5 9.6 0.00 0.00 0.00 74 1019.6
20260506224535 64 328 1.7 8.7 0.00 0.00 0.00 74 1019.7
20260506223036 64 0 1.7 8.7 0.00 0.00 0.00 75 1019.7
20260506221536 63 223 1.7 8.7 0.00 0.00 0.00 75 1020.0
20260506220039 63 304 4.3 9.6 0.00 0.00 0.00 75 1020.2
20260506214535 65 234 1.7 9.6 0.00 0.00 0.00 75 1020.2
20260506213036 64 284 3.5 8.7 0.00 0.00 0.00 73 1020.3
20260506211535 65 15 0.9 9.6 0.00 0.00 0.00 74 1020.4
20260506210039 65 309 1.7 11.3 0.00 0.00 0.00 74 1020.4
20260506204539 65 0 2.6 8.7 0.00 0.00 0.00 74 1020.3
20260506203036 65 0 2.6 8.7 0.00 0.00 0.00 73 1020.4
20260506201537 64 360 2.6 11.3 0.00 0.00 0.00 73 1020.3
20260506200041 65 265 3.5 11.3 0.00 0.00 0.00 72 1020.4
20260506194530 64 250 2.6 11.3 0.00 0.00 0.00 74 1020.4
20260506193036 64 319 2.6 10.4 0.00 0.00 0.00 73 1020.4
20260506191535 64 315 2.6 11.3 0.00 0.00 0.00 73 1020.6
20260506190036 64 321 1.7 7.8 0.00 0.00 0.00 74 1020.6
20260506184535 64 300 1.7 10.4 0.00 0.00 0.00 76 1020.6
20260506183037 63 271 1.7 11.3 0.00 0.00 0.00 76 1020.5
20260506181536 62 275 4.3 12.2 0.00 0.00 0.00 77 1020.6
20260506180041 62 311 3.5 12.2 0.00 0.00 0.00 76 1020.4
20260506174536 63 286 3.5 13.0 0.00 0.00 0.00 75 1020.3
20260506173042 64 309 1.7 8.7 0.00 0.00 0.00 76 1020.3
20260506171544 63 0 0.9 12.2 0.00 0.00 0.00 77 1020.2
20260506170037 64 98 0.9 7.8 0.00 0.00 0.00 76 1020.3
20260506164547 65 296 0.0 4.3 0.00 0.00 0.00 78 1020.3
20260506163035 63 360 0.9 3.5 0.00 0.00 0.00 81 1020.3
20260506161535 61 0 0.9 3.5 0.00 0.00 0.00 86 1020.4
20260506160037 59 83 0.0 4.3 0.00 0.00 0.00 89 1020.3
20260506154532 57 0 0.0 0.0 0.00 0.00 0.00 90 1020.3
20260506153036 56 0 0.0 0.0 0.00 0.00 0.00 91 1020.4
20260506151535 56 0 0.0 0.0 0.00 0.00 0.00 91 1020.4
20260506150036 55 0 0.0 0.0 0.00 0.00 0.00 91 1020.5
20260506144539 56 0 0.0 0.0 0.00 0.00 0.00 92 1020.6
20260506143037 55 0 0.0 0.0 0.00 0.00 0.00 92 1020.5
20260506141549 53 0 0.0 0.0 0.00 0.00 0.00 92 1020.4
20260506140035 53 0 0.0 0.0 0.00 0.00 0.00 92 1020.3
20260506134535 52 0 0.0 0.0 0.00 0.00 0.00 91 1020.1
20260506133036 51 0 0.0 0.0 0.00 0.00 0.00 91 1020.0
20260506131539 51 0 0.0 0.0 0.00 0.00 0.00 91 1019.9
20260506130035 51 0 0.0 0.0 0.00 0.00 0.00 91 1019.7
20260506124539 51 0 0.0 0.0 0.00 0.00 0.00 90 1019.7
20260506123056 51 0 0.0 0.0 0.00 0.00 0.00 91 1019.6
20260506121534 51 0 0.0 0.0 0.00 0.00 0.00 90 1019.6
20260506120104 51 0 0.0 0.0 0.00 0.00 0.00 90 1019.5
20260506114536 51 0 0.0 0.0 0.00 0.00 0.00 90 1019.5
20260506113035 52 0 0.0 0.0 0.00 0.00 0.00 90 1019.5
20260506111537 52 0 0.0 0.0 0.00 0.00 0.00 90 1019.5
20260506110038 52 0 0.0 0.0 0.00 0.00 0.00 90 1019.4
20260506104538 52 0 0.0 0.0 0.00 0.00 0.00 90 1019.5
20260506103037 52 0 0.0 0.0 0.00 0.00 0.00 89 1019.4
20260506101536 52 0 0.0 0.0 0.00 0.00 0.00 89 1019.5
20260506100035 52 0 0.0 0.0 0.00 0.00 0.00 89 1019.5
20260506094545 52 0 0.0 0.0 0.00 0.00 0.00 89 1019.7
20260506093044 52 0 0.0 0.0 0.00 0.00 0.00 88 1019.6
20260506091536 52 0 0.0 0.0 0.00 0.00 0.00 88 1019.6
20260506090035 53 0 0.0 0.0 0.00 0.00 0.00 88 1019.6
20260506084536 53 0 0.0 0.0 0.00 0.00 0.00 88 1019.5
20260506083036 53 0 0.0 0.0 0.00 0.00 0.00 88 1019.4
20260506081537 54 0 0.0 0.0 0.00 0.00 0.00 88 1019.5
20260506073036 54 0 0.0 0.0 0.00 0.00 0.00 87 1019.3
20260506071544 54 0 0.0 0.0 0.00 0.00 0.00 86 1019.3
20260506061537 56 0 0.0 0.0 0.00 0.00 0.00 85 1019.0
20260506044550 57 0 0.0 0.0 0.00 0.00 0.00 84 1018.5
20260506043035 57 0 0.0 0.0 0.00 0.00 0.00 84 1018.4
20260506041547 57 0 0.0 0.0 0.00 0.00 0.00 83 1018.3